FW5839 Weather Reports


time (UTC)temp
F
wind
direction
speed
knots
gust
knots
rain 1hr
in
rain 24hr
in
rain mn
in
humidity
%
barometer
mb
20260508093042 46 241 14.8 24.3 0.00 1.39 0.00 96 1005.2
20260508091539 46 242 19.1 26.1 0.00 1.39 0.00 96 1005.3
20260508090040 46 235 19.1 25.2 0.00 1.39 0.00 96 1004.9
20260508084535 46 226 14.8 23.5 0.00 1.39 0.00 96 1004.4
20260508083038 46 218 15.6 26.9 0.00 1.39 0.00 96 1004.2
20260508081531 46 222 14.8 24.3 0.00 1.39 0.00 96 1004.1
20260508080050 46 244 18.2 27.8 0.00 1.39 0.00 96 1003.9
20260508074528 46 212 20.0 29.5 0.00 1.39 0.00 97 1003.9
20260508071513 47 226 18.2 27.8 0.00 1.39 0.00 97 1003.6
20260508070018 47 235 20.9 29.5 0.00 1.39 0.00 97 1003.4
20260508064519 47 235 15.6 25.2 0.00 1.39 0.00 97 1003.3
20260508063003 47 248 16.5 26.9 0.00 1.39 0.00 97 1003.2
20260508061600 47 219 15.6 25.2 0.00 1.39 0.00 97 1003.4
20260508060059 47 214 20.9 30.4 0.00 1.39 0.00 97 1003.4
20260508054558 0 0.0 0.0 0.00 1.39 0.00 1003.7
20260508051501 51 229 15.6 22.6 0.09 1.40 0.10 97 1003.4
20260508050126 52 229 12.2 19.1 0.09 1.39 0.09 97 1003.7
20260508044559 52 242 12.2 16.5 0.06 1.36 0.06 97 1003.8
20260508043104 52 217 11.3 17.4 0.03 1.33 0.03 97 1003.7
20260508041601 52 231 11.3 28.7 0.02 1.31 0.02 97 1003.8
20260508040058 0 0.0 0.0 0.00 1.30 0.00 1003.9
20260508033045 53 220 16.5 25.2 0.12 1.35 0.05 97 1003.3
20260508031539 54 197 13.9 20.9 0.10 1.31 0.02 97 1003.0
20260508030036 55 223 15.6 22.6 0.09 1.30 0.00 97 1002.9
20260508024535 56 234 8.7 13.0 0.06 1.26 0.91 97 1002.2
20260508023033 56 202 6.1 10.4 0.03 1.23 0.88 97 1002.0
20260508021533 55 133 8.7 14.8 0.02 1.21 0.87 97 1001.7
20260508020030 56 196 10.4 15.6 0.02 1.20 0.86 97 1001.8
20260508014530 56 135 11.3 16.5 0.05 1.20 0.85 97 1001.0
20260508013030 56 135 13.9 20.0 0.09 1.20 0.85 97 1001.3
20260508011527 56 180 11.3 26.1 0.18 1.19 0.84 97 1001.4
20260508010026 60 202 8.7 14.8 0.35 1.17 0.83 97 1000.2
20260508004523 61 223 8.7 13.9 0.38 1.14 0.80 97 1001.6
20260508003019 60 277 8.7 12.2 0.48 1.09 0.74 97 1002.1
20260508001515 61 258 6.1 11.3 0.63 1.00 0.65 97 1001.6
20260508000014 60 316 1.7 3.5 0.46 0.80 0.46 97 1001.0
20260507234522 60 274 5.2 7.0 0.43 0.77 0.43 97 1000.7
20260507233016 60 282 2.6 7.8 0.25 0.60 0.25 97 1000.5
20260507231506 60 349 7.0 10.4 0.02 0.37 0.02 97 999.9
20260507221530 60 14 8.7 12.2 0.28 0.39 0.31 97 999.6
20260507220026 60 341 2.6 5.2 0.26 0.35 0.26 97 1001.8
20260507214519 60 39 2.6 4.3 0.19 0.28 0.19 97 1001.7
20260507213023 59 350 6.1 9.6 0.11 0.20 0.11 96 1002.5
20260507211517 59 91 3.5 9.6 0.01 0.09 0.01 96 1002.4
20260507191531 61 119 13.0 20.9 0.09 0.09 0.09 95 1002.5
20260507190042 61 206 10.4 15.6 0.09 0.09 0.09 95 1003.1
20260507184533 61 185 8.7 18.2 0.01 0.01 0.01 92 1001.8
20260507181505 78 279 21.7 32.2 0.00 0.00 0.00 69 999.6
20260507180005 78 276 19.1 28.7 0.00 0.00 0.00 70 999.5
20260507174506 78 299 20.0 31.3 0.00 0.00 0.00 69 999.7
20260507171534 78 274 22.6 31.3 0.00 0.00 0.00 70 999.7
20260507170033 78 276 19.1 33.0 0.00 0.00 0.00 71 1000.1
20260507164544 78 307 20.0 29.5 0.00 0.00 0.00 71 1000.2
20260507163029 77 280 20.9 32.2 0.00 0.00 0.00 71 1000.5
20260507161527 78 279 23.5 34.8 0.00 0.00 0.00 71 1000.7
20260507160028 78 289 17.4 30.4 0.00 0.00 0.00 71 1000.9
20260507154522 77 303 16.5 26.9 0.00 0.00 0.00 73 1001.2
20260507153018 76 276 15.6 24.3 0.00 0.00 0.00 75 1001.4
20260507151513 74 301 11.3 21.7 0.00 0.00 0.00 81 1001.8
20260507150010 73 304 12.2 20.0 0.00 0.00 0.00 83 1001.9
20260507144504 72 298 11.3 15.6 0.00 0.00 0.00 83 1002.4
20260507143001 72 298 10.4 14.8 0.00 0.00 0.00 83 1002.8
20260507141604 71 320 12.2 20.0 0.00 0.00 0.00 83 1003.3
20260507140059 71 320 13.0 20.0 0.00 0.00 0.00 83 1003.4
20260507134558 71 301 13.9 23.5 0.00 0.00 0.00 83 1003.4
20260507133058 71 314 14.8 23.5 0.00 0.00 0.00 83 1003.2
20260507131602 70 299 18.2 26.9 0.00 0.00 0.00 83 1003.3
20260507130057 71 308 18.2 28.7 0.00 0.00 0.00 82 1003.2
20260507124603 72 307 19.1 29.5 0.00 0.00 0.00 80 1003.1
20260507123053 72 306 20.9 27.8 0.00 0.00 0.00 81 1003.9
20260507121551 71 294 16.5 26.9 0.00 0.00 0.00 82 1004.6
20260507120052 71 307 19.1 31.3 0.00 0.00 0.00 82 1004.6
20260507114604 71 293 20.0 26.9 0.00 0.00 0.00 82 1005.0
20260507113104 71 292 16.5 23.5 0.00 0.00 0.00 83 1004.7
20260507111549 71 296 19.1 26.9 0.00 0.00 0.00 82 1004.7
20260507110047 71 295 18.2 25.2 0.00 0.00 0.00 83 1004.9
20260507104545 71 323 13.9 23.5 0.00 0.00 0.00 84 1005.1
20260507103050 70 303 19.1 26.1 0.00 0.00 0.00 84 1005.0
20260507101546 71 312 16.5 25.2 0.00 0.00 0.00 84 1004.8
20260507100040 71 308 16.5 24.3 0.00 0.00 0.00 84 1004.9